Weather History for KFRG - March, 2012

Change the Weather History Date:

Friday, March 2, 2012

  Actual Average Record
Temperature  
Mean Temperature 36 °F -  
Max Temperature 41 °F 42 °F 60 °F (1997)
Min Temperature 30 °F 28 °F 17 °F (2009)
Degree Days  
Heating Degree Days 30    
Moisture  
Dew Point 31 °F    
Average Humidity 83    
Maximum Humidity 96    
Minimum Humidity 75    
Precipitation  
Precipitation 0.10 in - - ()
Sea Level Pressure  
Sea Level Pressure 30.03 in    
Wind  
Wind Speed 8 mph (ESE)    
Max Wind Speed 18 mph    
Max Gust Speed 26 mph    
Visibility 9 miles    
Events Rain    
Averages and records for this station are not official NWS values.
T = Trace of Precipitation, MM = Missing Value Source: NWS Daily Summary

Daily Weather History Graph

Daily Weather History Graph

Search for Another Location

Airport or City:

Trip Planner

Search our weather history database for the weather conditions in past years. The results will help you decide how hot, cold, wet, or windy it might be!

Date:

Astronomy

Mar. 02, 2012 Rise Set
Actual Time 6:25 AM EST 5:46 PM EST
Civil Twilight 5:57 AM EST 6:14 PM EST
Nautical Twilight 5:26 AM EST 6:45 PM EST
Astronomical Twilight 4:54 AM EST 7:17 PM EST
Moon 11:54 AM EST (3/2) 2:14 AM EST (3/2)
Length of Visible Light 12h 16m
Length of Day
11h 21m
Waxing Gibbous, 66% of the Moon is Illuminated
Mar 2
Waxing Gibbous
Mar 8
Full
Mar 14
Last Quarter
Mar 22
New
Mar 30
First Quarter

Hourly Weather History & Observations

Time (EST) Temp. Windchill Dew Point Humidity Pressure Visibility Wind Dir Wind Speed Gust Speed Precip Events Conditions
12:53 AM 30.9 °F 27.5 °F 27.0 °F 85% 30.01 in 10.0 mi NNE 3.5 mph - N/A   Partly Cloudy
1:53 AM 30.9 °F 27.5 °F 27.0 °F 85% 30.03 in 10.0 mi NNE 3.5 mph - N/A   Overcast
2:53 AM 30.0 °F 23.2 °F 26.1 °F 85% 30.03 in 10.0 mi ENE 6.9 mph - N/A   Mostly Cloudy
3:53 AM 30.9 °F 25.2 °F 26.1 °F 82% 30.06 in 10.0 mi ENE 5.8 mph - N/A   Overcast
4:53 AM 30.9 °F 27.5 °F 26.1 °F 82% 30.08 in 10.0 mi ENE 3.5 mph - N/A   Overcast
5:53 AM 30.9 °F 26.2 °F 26.1 °F 82% 30.10 in 10.0 mi East 4.6 mph - N/A   Overcast
6:53 AM 30.9 °F 26.2 °F 26.1 °F 82% 30.11 in 10.0 mi East 4.6 mph - N/A   Overcast
7:53 AM 30.9 °F 23.5 °F 26.1 °F 82% 30.13 in 10.0 mi ESE 8.1 mph - N/A   Overcast
8:51 AM 32.0 °F 25.6 °F 26.6 °F 80% 30.13 in 10.0 mi ENE 6.9 mph - N/A   Overcast
8:53 AM 32.0 °F 26.4 °F 26.1 °F 79% 30.13 in 10.0 mi ENE 5.8 mph - N/A   Overcast
9:53 AM 33.1 °F 27.7 °F 27.0 °F 78% 30.14 in 10.0 mi East 5.8 mph - N/A   Overcast
10:09 AM 33.8 °F 28.6 °F 26.6 °F 75% 30.14 in 10.0 mi East 5.8 mph - N/A   Overcast
10:53 AM 34.0 °F 28.8 °F 28.0 °F 79% 30.15 in 10.0 mi ESE 5.8 mph - N/A   Overcast
11:53 AM 35.1 °F 32.2 °F 30.0 °F 82% 30.14 in 10.0 mi South 3.5 mph - N/A   Overcast
12:53 PM 37.0 °F 31.6 °F 30.0 °F 76% 30.11 in 10.0 mi ESE 6.9 mph - N/A   Overcast
1:53 PM 37.0 °F 31.6 °F 30.9 °F 79% 30.09 in 10.0 mi ESE 6.9 mph - N/A   Overcast
2:53 PM 37.9 °F 31.5 °F 32.0 °F 79% 30.06 in 10.0 mi ESE 9.2 mph - N/A   Overcast
3:07 PM 39.2 °F 33.0 °F 32.0 °F 75% 30.06 in 10.0 mi SE 9.2 mph - N/A   Overcast
3:53 PM 37.9 °F 30.9 °F 32.0 °F 79% 30.07 in 10.0 mi SE 10.4 mph - N/A   Overcast
4:04 PM 37.4 °F 30.8 °F 32.0 °F 81% 30.07 in 10.0 mi SE 9.2 mph - N/A   Overcast
4:53 PM 37.9 °F 30.5 °F 33.1 °F 83% 30.04 in 9.0 mi ESE 11.5 mph - N/A   Overcast
5:53 PM 39.0 °F 33.4 °F 34.0 °F 82% 30.05 in 10.0 mi SE 8.1 mph - N/A   Overcast
6:40 PM 39.2 °F 30.8 °F 33.8 °F 81% 30.04 in 10.0 mi SSE 15.0 mph 23.0 mph N/A   Overcast
6:53 PM 39.9 °F 31.4 °F 34.0 °F 79% 30.04 in 10.0 mi SE 16.1 mph - N/A   Overcast
7:53 PM 39.9 °F 30.8 °F 34.0 °F 79% 29.98 in 10.0 mi SE 18.4 mph 26.5 mph N/A   Overcast
8:41 PM 39.2 °F 30.5 °F 33.8 °F 81% 29.97 in 10.0 mi SE 16.1 mph 25.3 mph N/A   Overcast
8:53 PM 39.9 °F 30.8 °F 34.0 °F 79% 29.96 in 10.0 mi SE 18.4 mph 25.3 mph 0.00 in Rain Light Rain
9:25 PM 39.2 °F 30.2 °F 35.6 °F 87% 29.92 in 8.0 mi ESE 17.3 mph 24.2 mph 0.00 in Rain Light Rain
9:53 PM 39.0 °F 31.0 °F 36.0 °F 89% 29.92 in 6.0 mi ESE 13.8 mph - 0.02 in Rain Light Rain
10:40 PM 39.2 °F 31.2 °F 37.4 °F 93% 29.88 in 5.0 mi ESE 13.8 mph 20.7 mph 0.02 in Rain Light Rain
10:53 PM 39.9 °F 31.8 °F 37.9 °F 93% 29.86 in 5.0 mi ESE 15.0 mph 24.2 mph 0.03 in Rain Light Rain
11:08 PM 39.2 °F 30.5 °F 37.4 °F 93% 29.86 in 7.0 mi ESE 16.1 mph 21.9 mph 0.00 in Rain Light Rain
11:25 PM 41.0 °F 33.9 °F 39.2 °F 93% 29.86 in 4.0 mi ESE 12.7 mph 19.6 mph 0.02 in Rain Light Rain
11:53 PM 41.0 °F 33.9 °F 39.9 °F 96% 29.83 in 3.0 mi ESE 12.7 mph 19.6 mph 0.05 in Rain Light Rain